カタログに戻る

SL-12 R/B(2)

運用中MEO
NORAD 24897·ROCKET BODY·🇷🇺 Russia

打ち上げ Aug 14, 1997 から Baikonur Cosmodrome

Loading…

次のパス (今後24時間)

TLE

最新Source: Space-Track

元期: Sep 14, 2026, 12:25 UTC

1 24897U 97041D   26257.51804348 -.00000007  00000-0  00000-0 0  9994
2 24897  14.5207 357.4473 0357637 303.9817  74.4981  1.00009462106255

AllMySatでSL-12 R/B(2)をリアルタイム追跡

Download on the App Store